Location: Albuquerque Trailhead
(34.7934°N, 106.3736°W)
Time: 22:22:51
(UTC+00:00)

Cosmos 405 - Pass Details

Date: 20 June 2021
Orbit: 446 x 459 km, 81.3° (Epoch: 01 August)

Event Time Altitude Azimuth Distance (km) Brightness Sun altitude
Rises 04:38:27 0° 358° (N) 2,452 7.5 -21.9°
Reaches altitude 10° 04:40:34 10° 4° (N) 1,576 6.3 -22.2°
Enters shadow 04:42:58 36° 33° (NNE) 720 4.0 -22.5°
